Weather History for KGWR - January, 2013

Change the Weather History Date:

Thursday, January 24, 2013

  Actual Average (KP67) Record (KP67)
Temperature  
Mean Temperature 2 °F -  
Max Temperature 14 °F 13 °F 23 °F (1998)
Min Temperature -9 °F 0 °F -14 °F (1997)
Degree Days  
Heating Degree Days 62    
Moisture  
Dew Point -8 °F    
Average Humidity 63    
Maximum Humidity 73    
Minimum Humidity 54    
Precipitation  
Precipitation 0.00 in - - ()
Sea Level Pressure  
Sea Level Pressure 30.30 in    
Wind  
Wind Speed 12 mph (SE)    
Max Wind Speed 23 mph    
Max Gust Speed 28 mph    
Visibility 10 miles    
Events      
Averages and records for this station are not official NWS values.
T = Trace of Precipitation, MM = Missing Value Source: NWS Daily Summary

Daily Weather History Graph

Daily Weather History Graph

Search for Another Location

Airport or City:

Trip Planner

Search our weather history database for the weather conditions in past years. The results will help you decide how hot, cold, wet, or windy it might be!

Date:

Astronomy

Jan. 24, 2013 Rise Set
Actual Time 8:01 AM CST 5:24 PM CST
Civil Twilight 7:29 AM CST 5:56 PM CST
Nautical Twilight 6:52 AM CST 6:33 PM CST
Astronomical Twilight 6:17 AM CST 7:08 PM CST
Moon 3:25 PM CST (1/24) 6:02 AM CST (1/24)
Length of Visible Light 10h 27m
Length of Day
9h 22m
Waxing Gibbous, 94% of the Moon is Illuminated
Jan 24
Waxing Gibbous
Jan 26
Full
Feb 3
Last Quarter
Feb 10
New
Feb 17
First Quarter

Hourly Weather History & Observations

Time (CST) Temp. Windchill Dew Point Humidity Pressure Visibility Wind Dir Wind Speed Gust Speed Precip Events Conditions
12:15 AM -9.4 °F -26.8 °F -22.0 °F 54% 30.60 in 10.0 mi NE 9.2 mph - 0.00 in   Clear
12:35 AM -9.4 °F -24.3 °F -22.0 °F 54% 30.60 in 10.0 mi NE 6.9 mph - 0.00 in   Clear
12:55 AM -9.4 °F -25.6 °F -20.2 °F 59% 30.59 in 10.0 mi ENE 8.1 mph - 0.00 in   Clear
1:15 AM -9.4 °F -24.3 °F -20.2 °F 59% 30.60 in 10.0 mi NE 6.9 mph - 0.00 in   Clear
1:35 AM -9.4 °F -22.7 °F -20.2 °F 59% 30.61 in 10.0 mi ENE 5.8 mph - 0.00 in   Clear
1:55 AM -9.4 °F - -20.2 °F 59% 30.61 in 10.0 mi Calm Calm - 0.00 in   Clear
2:15 AM -9.4 °F - -18.4 °F 65% 30.61 in 10.0 mi Calm Calm - 0.00 in   Clear
2:35 AM -9.4 °F -20.9 °F -18.4 °F 65% 30.60 in 10.0 mi ESE 4.6 mph - 0.00 in   Clear
2:55 AM -9.4 °F -24.3 °F -18.4 °F 65% 30.57 in 10.0 mi East 6.9 mph - 0.00 in   Partly Cloudy
3:15 AM -7.6 °F -24.6 °F -18.4 °F 59% 30.56 in 10.0 mi East 9.2 mph - 0.00 in   Mostly Cloudy
3:35 AM -7.6 °F -24.6 °F -18.4 °F 59% 30.55 in 10.0 mi East 9.2 mph - 0.00 in   Partly Cloudy
3:55 AM -7.6 °F -24.6 °F -16.6 °F 65% 30.54 in 10.0 mi East 9.2 mph - 0.00 in   Clear
4:15 AM -7.6 °F -25.7 °F -18.4 °F 59% 30.55 in 10.0 mi ESE 10.4 mph - 0.00 in   Clear
4:35 AM -7.6 °F -25.7 °F -18.4 °F 59% 30.54 in 10.0 mi ESE 10.4 mph - 0.00 in   Clear
4:55 AM -7.6 °F -25.7 °F -16.6 °F 65% 30.53 in 10.0 mi ESE 10.4 mph - 0.00 in   Clear
5:15 AM -7.6 °F -26.6 °F -16.6 °F 65% 30.54 in 10.0 mi SE 11.5 mph - 0.00 in   Clear
5:35 AM -7.6 °F -24.6 °F -16.6 °F 65% 30.55 in 10.0 mi South 9.2 mph - 0.00 in   Clear
5:55 AM -5.8 °F -22.4 °F -16.6 °F 60% 30.55 in 10.0 mi SSE 9.2 mph - 0.00 in   Clear
6:15 AM -5.8 °F -22.4 °F -16.6 °F 60% 30.55 in 10.0 mi SSE 9.2 mph - 0.00 in   Clear
6:35 AM -5.8 °F -22.4 °F -16.6 °F 60% 30.52 in 10.0 mi SE 9.2 mph - 0.00 in   Clear
6:55 AM -5.8 °F -25.2 °F -16.6 °F 60% 30.49 in 10.0 mi ESE 12.7 mph - 0.00 in   Clear
7:15 AM -5.8 °F -26.0 °F -14.8 °F 65% 30.47 in 10.0 mi ESE 13.8 mph - 0.00 in   Clear
7:35 AM -5.8 °F -27.5 °F -14.8 °F 65% 30.43 in 10.0 mi ESE 16.1 mph - 0.00 in   Clear
7:55 AM -5.8 °F -27.5 °F -14.8 °F 65% 30.43 in 10.0 mi SE 16.1 mph - 0.00 in   Clear
8:15 AM -4.0 °F -24.5 °F -14.8 °F 60% 30.44 in 10.0 mi SE 15.0 mph - 0.00 in   Clear
8:35 AM -4.0 °F -24.5 °F -14.8 °F 60% 30.43 in 10.0 mi SE 15.0 mph - 0.00 in   Clear
8:55 AM -4.0 °F -23.7 °F -13.0 °F 65% 30.42 in 10.0 mi SE 13.8 mph - 0.00 in   Clear
9:15 AM -4.0 °F -25.2 °F -13.0 °F 65% 30.40 in 10.0 mi SE 16.1 mph - 0.00 in   Clear
9:35 AM -2.2 °F -24.1 °F -13.0 °F 60% 30.40 in 10.0 mi SE 18.4 mph - 0.00 in   Clear
9:55 AM -2.2 °F -24.1 °F -13.0 °F 60% 30.39 in 10.0 mi SE 18.4 mph - 0.00 in   Clear
10:15 AM -0.4 °F -20.5 °F -13.0 °F 55% 30.40 in 10.0 mi SE 16.1 mph - 0.00 in   Clear
10:35 AM -0.4 °F -21.2 °F -11.2 °F 60% 30.37 in 10.0 mi SE 17.3 mph - 0.00 in   Clear
10:55 AM -0.4 °F -19.9 °F - N/A% 30.36 in 10.0 mi SE 15.0 mph 21.9 mph 0.00 in   Clear
11:15 AM -0.4 °F -20.5 °F -9.4 °F 66% 30.36 in 10.0 mi SE 16.1 mph - 0.00 in   Partly Cloudy
11:35 AM 1.4 °F -18.2 °F -9.4 °F 61% 30.35 in 10.0 mi SE 16.1 mph - 0.00 in   Clear
11:55 AM 1.4 °F -18.2 °F -9.4 °F 61% 30.33 in 10.0 mi SE 16.1 mph - 0.00 in   Scattered Clouds
12:15 PM 1.4 °F -18.8 °F -7.6 °F 66% 30.31 in 10.0 mi SE 17.3 mph - 0.00 in   Partly Cloudy
12:35 PM 3.2 °F -19.0 °F -7.6 °F 61% 30.26 in 10.0 mi ESE 23.0 mph - 0.00 in   Clear
12:55 PM 3.2 °F -16.5 °F -5.8 °F 66% 30.27 in 10.0 mi SE 17.3 mph 21.9 mph 0.00 in   Scattered Clouds
1:15 PM 3.2 °F -18.1 °F -7.6 °F 61% 30.24 in 10.0 mi SE 20.7 mph - 0.00 in   Scattered Clouds
1:35 PM 3.2 °F -18.6 °F -5.8 °F 66% 30.22 in 10.0 mi SE 21.9 mph - 0.00 in   Clear
1:55 PM 3.2 °F -17.6 °F -5.8 °F 66% 30.23 in 10.0 mi SE 19.6 mph - 0.00 in   Partly Cloudy
2:15 PM 5.0 °F -14.7 °F -5.8 °F 61% 30.20 in 10.0 mi SE 18.4 mph - 0.00 in   Partly Cloudy
2:35 PM 5.0 °F -16.7 °F -5.8 °F 61% 30.16 in 10.0 mi SE 23.0 mph 27.6 mph 0.00 in   Scattered Clouds
2:55 PM 5.0 °F -15.7 °F -4.0 °F 66% 30.16 in 10.0 mi ESE 20.7 mph 25.3 mph 0.00 in   Scattered Clouds
3:15 PM 5.0 °F -13.6 °F -4.0 °F 66% 30.18 in 10.0 mi SE 16.1 mph 21.9 mph 0.00 in   Partly Cloudy
3:35 PM 6.8 °F -12.4 °F -4.0 °F 61% 30.16 in 10.0 mi SE 18.4 mph - 0.00 in   Clear
3:55 PM 6.8 °F -14.3 °F -4.0 °F 61% 30.12 in 10.0 mi SE 23.0 mph 27.6 mph 0.00 in   Clear
4:15 PM 6.8 °F -11.8 °F -2.2 °F 67% 30.10 in 10.0 mi SE 17.3 mph - 0.00 in   Scattered Clouds
4:35 PM 8.6 °F -9.5 °F -2.2 °F 62% 30.13 in 10.0 mi SE 17.3 mph - 0.00 in   Mostly Cloudy
4:55 PM 8.6 °F -7.0 °F -0.4 °F 67% 30.13 in 10.0 mi SSE 12.7 mph - 0.00 in   Mostly Cloudy
5:35 PM 10.4 °F -7.2 °F -0.4 °F 62% 30.07 in 10.0 mi SSE 17.3 mph - 0.00 in   Mostly Cloudy
5:55 PM 12.2 °F -5.3 °F -0.4 °F 57% 30.05 in 10.0 mi South 18.4 mph 24.2 mph 0.00 in   Mostly Cloudy
6:15 PM 12.2 °F -5.8 °F -0.4 °F 57% 30.05 in 10.0 mi South 19.6 mph - 0.00 in   Mostly Cloudy
6:35 PM 12.2 °F -4.8 °F 1.4 °F 62% 30.06 in 10.0 mi South 17.3 mph - 0.00 in   Overcast
6:55 PM 12.2 °F -5.3 °F 1.4 °F 62% 30.06 in 10.0 mi South 18.4 mph - 0.00 in   Overcast
7:15 PM 12.2 °F -4.3 °F 1.4 °F 62% 30.05 in 10.0 mi South 16.1 mph - 0.00 in   Overcast
7:35 PM 12.2 °F -3.1 °F 3.2 °F 67% 30.07 in 10.0 mi SSW 13.8 mph - 0.00 in   Overcast
7:55 PM 14.0 °F -0.2 °F 3.2 °F 62% 30.05 in 10.0 mi SSW 12.7 mph - 0.00 in   Overcast
8:15 PM 14.0 °F -2.5 °F 3.2 °F 62% 30.04 in 10.0 mi SSW 17.3 mph 23.0 mph 0.00 in   Overcast
8:35 PM 14.0 °F -1.4 °F 3.2 °F 62% 30.02 in 10.0 mi SSW 15.0 mph - 0.00 in   Overcast
8:55 PM 14.0 °F -3.0 °F 3.2 °F 62% 30.02 in 10.0 mi SSW 18.4 mph - 0.00 in   Mostly Cloudy
9:15 PM 12.2 °F -4.3 °F 3.2 °F 67% 30.00 in 10.0 mi SSW 16.1 mph 20.7 mph 0.00 in   Clear
9:35 PM 12.2 °F -3.1 °F 3.2 °F 67% 30.01 in 10.0 mi SSW 13.8 mph - 0.00 in   Clear
9:55 PM 12.2 °F -1.8 °F 3.2 °F 67% 30.00 in 10.0 mi SSW 11.5 mph - 0.00 in   Clear
10:15 PM 12.2 °F -1.8 °F 3.2 °F 67% 30.00 in 10.0 mi SSW 11.5 mph - 0.00 in   Clear
10:35 PM 12.2 °F -3.7 °F 3.2 °F 67% 29.99 in 10.0 mi SSW 15.0 mph - 0.00 in   Clear
10:55 PM 12.2 °F -4.3 °F 3.2 °F 67% 29.98 in 10.0 mi SSW 16.1 mph - 0.00 in   Clear
11:15 PM 12.2 °F -3.1 °F 5.0 °F 73% 29.98 in 10.0 mi SW 13.8 mph - 0.00 in   Mostly Cloudy
11:35 PM 14.0 °F -2.5 °F 5.0 °F 67% 29.98 in 10.0 mi SW 17.3 mph 20.7 mph 0.00 in   Overcast
11:55 PM 14.0 °F -2.0 °F 6.8 °F 73% 29.98 in 10.0 mi SW 16.1 mph 21.9 mph 0.00 in   Overcast